| time (UTC) | temp C | wind direction | speed KPH | gust KPH | rain 1hr cm | rain 24hr cm | rain mn cm | humidity % | barometer mb |
| 20260506033052 | 12 | 199 | 11.3 | 20.9 | 0.00 | 0.58 | 0.00 | 95 | 1006.7 |
| 20260506031547 | 12 | 207 | 11.3 | 19.3 | 0.00 | 0.58 | 0.00 | 95 | 1006.9 |
| 20260506030049 | 11 | 195 | 8.0 | 12.9 | 0.00 | 0.58 | 0.00 | 95 | 1007.1 |
| 20260506024549 | 12 | 209 | 6.4 | 14.5 | 0.00 | 0.58 | 0.00 | 95 | 1007.0 |
| 20260506023055 | 12 | 182 | 4.8 | 11.3 | 0.00 | 0.58 | 0.00 | 95 | 1007.0 |
| 20260506021547 | 12 | 198 | 6.4 | 16.1 | 0.00 | 0.58 | 0.00 | 95 | 1007.1 |
| 20260506020114 | 12 | 190 | 8.0 | 17.7 | 0.00 | 0.58 | 0.00 | 95 | 1007.0 |
| 20260506014550 | 12 | 177 | 9.7 | 20.9 | 0.00 | 0.58 | 0.00 | 95 | 1007.0 |
| 20260506013051 | 12 | 194 | 12.9 | 17.7 | 0.00 | 0.58 | 0.00 | 95 | 1007.2 |
| 20260506011552 | 12 | 158 | 6.4 | 16.1 | 0.00 | 0.58 | 0.00 | 95 | 1007.1 |
| 20260506010050 | 12 | 179 | 9.7 | 17.7 | 0.00 | 0.58 | 0.00 | 95 | 1007.4 |
| 20260506004546 | 12 | 190 | 11.3 | 20.9 | 0.00 | 0.58 | 0.00 | 95 | 1007.5 |
| 20260506003047 | 12 | 185 | 12.9 | 19.3 | 0.00 | 0.58 | 0.00 | 95 | 1007.5 |
| 20260506001602 | 12 | 152 | 11.3 | 19.3 | 0.00 | 0.58 | 0.00 | 95 | 1007.4 |
| 20260506000113 | 12 | 171 | 9.7 | 20.9 | 0.00 | 0.58 | 0.00 | 95 | 1007.5 |
| 20260505234552 | 12 | 194 | 9.7 | 17.7 | 0.00 | 0.58 | 0.00 | 95 | 1007.8 |
| 20260505233053 | 12 | 185 | 9.7 | 14.5 | 0.00 | 0.58 | 0.00 | 94 | 1007.8 |
| 20260505231556 | 13 | 202 | 9.7 | 16.1 | 0.00 | 0.58 | 0.00 | 94 | 1007.8 |
| 20260505230049 | 12 | 202 | 11.3 | 16.1 | 0.00 | 0.58 | 0.00 | 94 | 1007.8 |
| 20260505224552 | 12 | 182 | 8.0 | 16.1 | 0.00 | 0.58 | 0.00 | 94 | 1007.9 |
| 20260505223053 | 13 | 188 | 6.4 | 14.5 | 0.00 | 0.58 | 0.00 | 94 | 1007.9 |
| 20260505221557 | 13 | 167 | 9.7 | 17.7 | 0.03 | 0.58 | 0.00 | 94 | 1007.8 |
| 20260505220103 | 13 | 162 | 8.0 | 16.1 | 0.13 | 0.58 | 0.00 | 95 | 1007.8 |
| 20260505214551 | 13 | 149 | 9.7 | 16.1 | 0.25 | 0.58 | 0.58 | 94 | 1007.8 |
| 20260505213043 | 13 | 200 | 8.0 | 14.5 | 0.28 | 0.56 | 0.56 | 94 | 1008.0 |
| 20260505211621 | 13 | 153 | 8.0 | 14.5 | 0.25 | 0.56 | 0.56 | 94 | 1008.0 |
| 20260505210057 | 13 | 169 | 6.4 | 11.3 | 0.23 | 0.46 | 0.46 | 94 | 1008.1 |
| 20260505204602 | 13 | 188 | 3.2 | 6.4 | 0.10 | 0.33 | 0.33 | 93 | 1008.0 |
| 20260505203046 | 13 | 253 | 4.8 | 16.1 | 0.08 | 0.28 | 0.28 | 93 | 1007.9 |
| 20260505201545 | 14 | 242 | 0.0 | 6.4 | 0.08 | 0.28 | 0.28 | 94 | 1007.8 |
| 20260505200050 | 14 | 28 | 1.6 | 4.8 | 0.00 | 0.20 | 0.20 | 93 | 1007.7 |
| 20260505194549 | 14 | 0 | 0.0 | 0.0 | 0.00 | 0.20 | 0.20 | 93 | 1007.7 |
| 20260505193055 | 14 | 0 | 0.0 | 0.0 | 0.00 | 0.20 | 0.20 | 93 | 1007.5 |
| 20260505191546 | 14 | 0 | 0.0 | 0.0 | 0.00 | 0.20 | 0.20 | 92 | 1007.6 |
| 20260505190058 | 14 | 0 | 0.0 | 1.6 | 0.00 | 0.20 | 0.20 | 91 | 1007.4 |
| 20260505184545 | 15 | 0 | 0.0 | 0.0 | 0.00 | 0.20 | 0.20 | 92 | 1007.4 |
| 20260505183044 | 15 | 0 | 0.0 | 3.2 | 0.00 | 0.20 | 0.20 | 91 | 1007.5 |
| 20260505181624 | 15 | 0 | 0.0 | 0.0 | 0.00 | 0.20 | 0.20 | 90 | 1007.4 |
| 20260505174550 | 15 | 0 | 0.0 | 3.2 | 0.00 | 0.20 | 0.20 | 89 | 1007.5 |
| 20260505173051 | 15 | 0 | 0.0 | 3.2 | 0.00 | 0.20 | 0.20 | 89 | 1007.5 |
| 20260505171559 | 15 | 0 | 0.0 | 4.8 | 0.00 | 0.20 | 0.20 | 89 | 1007.6 |
| 20260505170052 | 15 | 21 | 1.6 | 4.8 | 0.00 | 0.20 | 0.20 | 90 | 1007.6 |
| 20260505164548 | 15 | 19 | 0.0 | 3.2 | 0.00 | 0.20 | 0.20 | 90 | 1007.7 |
| 20260505163049 | 15 | 9 | 0.0 | 1.6 | 0.00 | 0.20 | 0.20 | 91 | 1007.9 |
| 20260505161551 | 14 | 0 | 0.0 | 1.6 | 0.00 | 0.20 | 0.20 | 91 | 1007.9 |
| 20260505153050 | 14 | 0 | 1.6 | 4.8 | 0.00 | 0.20 | 0.20 | 91 | 1008.1 |
| 20260505151548 | 14 | 355 | 1.6 | 4.8 | 0.00 | 0.20 | 0.20 | 91 | 1008.2 |
| 20260505124551 | 18 | 274 | 3.2 | 11.3 | 0.00 | 0.00 | 0.00 | 70 | 1008.1 |
| 20260505123055 | 18 | 0 | 1.6 | 6.4 | 0.00 | 0.00 | 0.00 | 68 | 1008.1 |
| 20260505121550 | 18 | 211 | 1.6 | 8.0 | 0.00 | 0.00 | 0.00 | 68 | 1008.1 |
| 20260505120104 | 18 | 188 | 3.2 | 6.4 | 0.00 | 0.00 | 0.00 | 69 | 1008.2 |
| 20260505114544 | 18 | 0 | 0.0 | 4.8 | 0.00 | 0.00 | 0.00 | 68 | 1008.3 |
| 20260505113050 | 18 | 0 | 3.2 | 9.7 | 0.00 | 0.00 | 0.00 | 68 | 1008.3 |
| 20260505111547 | 18 | 0 | 1.6 | 6.4 | 0.00 | 0.00 | 0.00 | 69 | 1008.3 |
| 20260505110108 | 18 | 126 | 3.2 | 9.7 | 0.00 | 0.00 | 0.00 | 71 | 1008.5 |
| 20260505101551 | 18 | 157 | 3.2 | 9.7 | 0.00 | 0.00 | 0.00 | 69 | 1009.0 |
| 20260505100049 | 18 | 186 | 3.2 | 9.7 | 0.00 | 0.00 | 0.00 | 69 | 1009.0 |
| 20260505094550 | 18 | 261 | 1.6 | 8.0 | 0.00 | 0.00 | 0.00 | 70 | 1009.0 |
| 20260505093051 | 18 | 196 | 1.6 | 12.9 | 0.00 | 0.00 | 0.00 | 72 | 1009.1 |
| 20260505091553 | 17 | 199 | 1.6 | 8.0 | 0.00 | 0.00 | 0.00 | 73 | 1009.3 |
| 20260505090051 | 17 | 219 | 6.4 | 12.9 | 0.00 | 0.00 | 0.00 | 73 | 1009.3 |
| 20260505084600 | 17 | 184 | 3.2 | 14.5 | 0.00 | 0.00 | 0.00 | 74 | 1009.6 |
| 20260505083056 | 17 | 0 | 4.8 | 9.7 | 0.00 | 0.00 | 0.00 | 74 | 1009.6 |
| 20260505081544 | 17 | 196 | 0.0 | 6.4 | 0.00 | 0.00 | 0.00 | 75 | 1009.6 |
| 20260505080054 | 16 | 189 | 3.2 | 6.4 | 0.00 | 0.00 | 0.00 | 77 | 1009.6 |
| 20260505074550 | 16 | 209 | 1.6 | 6.4 | 0.00 | 0.00 | 0.00 | 79 | 1009.8 |
| 20260505073057 | 15 | 0 | 3.2 | 8.0 | 0.00 | 0.00 | 0.00 | 80 | 1009.9 |
| 20260505071545 | 15 | 177 | 4.8 | 9.7 | 0.00 | 0.00 | 0.00 | 80 | 1010.0 |
| 20260505070053 | 15 | 186 | 4.8 | 11.3 | 0.00 | 0.00 | 0.00 | 80 | 1010.1 |
| 20260505064603 | 15 | 155 | 1.6 | 6.4 | 0.00 | 0.00 | 0.00 | 81 | 1010.1 |
| 20260505063047 | 14 | 213 | 1.6 | 8.0 | 0.00 | 0.00 | 0.00 | 83 | 1010.2 |
| 20260505061547 | 13 | 261 | 1.6 | 4.8 | 0.00 | 0.00 | 0.00 | 87 | 1010.3 |
| 20260505060050 | 13 | 272 | 1.6 | 3.2 | 0.00 | 0.00 | 0.00 | 88 | 1010.3 |
| 20260505054552 | 12 | 273 | 1.6 | 4.8 | 0.00 | 0.00 | 0.00 | 87 | 1010.3 |
| 20260505053057 | 12 | 0 | 0.0 | 0.0 | 0.00 | 0.00 | 0.00 | 87 | 1010.2 |
| 20260505051549 | 12 | 0 | 0.0 | 0.0 | 0.00 | 0.00 | 0.00 | 87 | 1010.1 |
| 20260505041603 | 12 | 0 | 0.0 | 0.0 | 0.00 | 0.00 | 0.00 | 85 | 1010.2 |
| 20260505040100 | 12 | 0 | 0.0 | 0.0 | 0.00 | 0.00 | 0.00 | 85 | 1010.1 |
| 20260505034606 | 13 | 0 | 0.0 | 0.0 | 0.00 | 0.00 | 0.00 | 84 | 1010.1 |